Location: Madison
(43.0730°N, 89.3819°W)
Time: 23:12:14
(UTC-06:00)

ISS - Pass Details

Date: 23 January 2019
Orbit: 403 x 411 km, 51.6° (Epoch: 23 February)

Event Time Altitude Azimuth Distance (km) Brightness Sun altitude
Rises 17:39:26 0° 205° (SSW) 2,317 0.7 -7.8°
Reaches altitude 10° 17:41:46 10° 190° (S) 1,463 -0.6 -8.2°
Maximum altitude 17:44:26 23° 135° (SE) 916 -2.3 -8.7°
Enters shadow 17:46:44 12° 85° (E) 1,346 -1.8 -9.1°
